Location: Noordwijk
(52.2400°N, 4.4500°E)
Time: 12:34:21
(UTC+00:00)

AO-85 - Pass Details

Date: 30 November 2022
Orbit: 516 x 753 km, 64.8° (Epoch: 04 January)

Event Time Altitude Azimuth Distance (km) Brightness Sun altitude
Rises 17:39:02 0° 250° (WSW) 2,973 ? -18.2°
Reaches altitude 10° 17:41:35 10° 260° (W) 2,021 ? -18.6°
Maximum altitude 17:45:45 34° 326° (NW) 997 ? -19.2°
Enters shadow 17:47:49 22° 15° (NNE) 1,304 ? -19.5°
